[[[{"header":{"parameterUnit":"kt","parameterCategory":2,"dx":1,"dy":1,"la1":30.253999710083008,"la2":30.299108505249023,"lo1":-89.0895004272461,"lo2":-89.04439544677734,"nx":28,"ny":28,"refTime":"2022-10-06T21:00:00:Z","depth":0,"parameterNumber":1,"parameterNumberName":"U-component_of_WINDS"},"data":[2.6838,2.6933,2.6988,2.712,2.7191,2.7289,2.7341,2.7413,2.7483,2.7604,2.7681,2.7742,2.783,2.7933,2.8017,2.8041,2.8073,2.8068,2.8097,2.8073,2.8073,2.8073,2.8056,2.8075,2.8075,2.8114,2.8114,2.8115,2.682,2.6892,2.6978,2.7098,2.7171,2.721,2.7306,2.7364,2.7449,2.7535,2.7615,2.7723,2.7813,2.7904,2.7999,2.804,2.8061,2.8062,2.8059,2.8072,2.8049,2.803,2.8044,2.8044,2.8044,2.8044,2.8044,2.8044,2.6801,2.6855,2.696,2.7054,2.7128,2.7206,2.7266,2.7341,2.7423,2.7532,2.7577,2.7672,2.7766,2.7904,2.7962,2.8035,2.8043,2.8058,2.8062,2.8065,2.8061,2.7999,2.8053,2.8054,2.8054,2.8054,2.8054,0,2.6803,2.6846,2.6931,2.7034,2.7104,2.7187,2.7271,2.7309,2.7411,2.7473,2.7567,2.7629,2.775,2.7842,2.7941,2.7998,2.8038,2.8048,2.8059,2.8038,2.8008,2.8025,2.7985,2.8044,2.8045,2.8045,2.8045,2.8045,2.6788,2.6844,2.6979,2.7031,2.7091,2.7173,2.7233,2.7319,2.7377,2.7491,2.7532,2.7626,2.7705,2.7842,2.7922,2.8011,2.803,2.8048,2.8043,2.8023,2.8031,2.8026,2.8032,2.8046,2.8046,2.8046,2.8046,0,2.6774,2.6863,2.6966,2.7093,2.7126,2.7179,2.7286,2.734,2.7406,2.749,2.7514,2.7614,2.7702,2.7782,2.7896,2.7934,2.8017,2.8035,2.7987,2.7995,2.8018,2.8015,2.8081,2.8094,2.8076,2.8076,2.8076,0,2.6795,2.6864,2.6992,2.7047,2.7126,2.7212,2.7287,2.7351,2.7434,2.7501,2.7562,2.7622,2.7714,2.7785,2.7841,2.7923,2.7944,2.7978,2.7992,2.7972,2.7968,2.8,2.7999,2.802,2.802,2.802,2.8019,0,2.6764,2.6912,2.7002,2.705,2.7189,2.7229,2.7287,2.7381,2.7436,2.752,2.7557,2.7647,2.7696,2.7764,2.7835,2.7829,2.7938,2.7944,2.7971,2.797,2.7989,2.7986,2.8028,2.8019,2.8019,2.8019,2.8018,0,2.6793,2.6882,2.6999,2.7118,2.7152,2.7209,2.7308,2.7375,2.7468,2.7509,2.7575,2.7623,2.7702,2.7703,2.7812,2.7785,2.7829,2.7868,2.7872,2.7881,2.788,2.7892,2.7924,2.793,2.7894,2.7893,2.7892,0,2.6734,2.6875,2.6951,2.7058,2.7135,2.7201,2.7266,2.7347,2.7407,2.7477,2.7541,2.7619,2.7637,2.7671,2.7716,2.7783,2.7818,2.778,2.7876,2.7878,2.785,2.7882,2.7867,2.7909,2.788,2.7881,2.7882,0,2.6698,2.687,2.6883,2.6941,2.7064,2.7126,2.7201,2.7299,2.7342,2.7424,2.7488,2.7598,2.7616,2.7672,2.772,2.7761,2.7797,2.7773,2.7776,2.7775,2.7879,2.7865,2.7872,2.7819,2.7821,2.7822,2.7872,0,2.6724,2.6805,2.6847,2.697,2.7031,2.7102,2.719,2.7242,2.7285,2.7345,2.7438,2.752,2.7615,2.7643,2.7681,2.7751,2.7751,2.7768,2.7772,2.7792,2.7811,2.7818,2.7739,2.7739,2.774,2.774,0,0,2.6644,2.6763,2.6842,2.6919,2.6975,2.7042,2.711,2.7171,2.7292,2.7328,2.7333,2.7499,2.7564,2.7666,2.7679,2.7717,2.7736,2.7725,2.7782,2.7787,2.7791,2.7809,2.7816,2.7741,2.7741,2.7742,2.7742,0,2.6673,2.6746,2.6814,2.6883,2.6988,2.705,2.7066,2.7179,2.722,2.7312,2.7361,2.7425,2.7553,2.7617,2.7666,2.7716,2.7747,2.7738,2.7738,2.7785,2.7788,2.7792,2.781,2.7816,2.7743,2.7743,2.7743,0,2.6653,2.674,2.6782,2.6915,2.6982,2.7057,2.7086,2.7162,2.7217,2.7279,2.7368,2.7424,2.7514,2.76,2.7641,2.7645,2.7752,2.7731,2.773,2.7735,2.7785,2.7789,2.7793,2.7742,2.7742,2.7741,0,0,2.6665,2.6741,2.6858,2.6927,2.6967,2.7059,2.7106,2.7153,2.7237,2.7269,2.7341,2.7418,2.7494,2.7541,2.7616,2.7697,2.7722,2.7728,2.7728,2.7728,2.7732,2.7781,2.7786,2.774,2.774,2.774,0,0,2.6669,2.681,2.6839,2.693,2.7011,2.7127,2.7164,2.7201,2.7278,2.7278,2.7356,2.738,2.746,2.7512,2.7486,2.7618,2.7622,2.7629,2.7582,2.7583,2.7583,2.7568,2.7522,0,0,0,0,0,2.6742,2.6793,2.6818,2.6847,2.7011,2.7114,2.7135,2.7203,2.7206,2.7234,2.7301,2.7331,2.7515,2.7494,2.7519,2.7545,2.7724,2.7727,2.773,2.7688,2.7689,2.7689,0,0,0,0,0,0,2.6754,2.6789,2.6817,2.6935,2.6972,2.7113,2.7132,2.7152,2.7205,2.721,2.7317,2.7334,2.7391,2.7486,2.7507,2.7531,2.7515,2.7725,2.7728,2.773,2.7688,2.7689,2.7689,0,0,0,0,0,2.6764,2.6792,2.7038,2.6934,2.6967,2.7071,2.7131,2.7148,2.7189,2.7291,2.7309,2.7236,2.739,2.7412,2.7499,2.752,2.7501,2.7509,2.7727,2.7729,2.7731,2.7689,0,0,0,0,0,0,2.6771,2.6806,2.7046,2.7058,2.6921,2.7064,2.7089,2.7143,2.7268,2.7287,2.7213,2.7216,2.739,2.7407,2.7424,2.7513,2.749,2.7498,2.7502,2.7728,2.773,2.7731,0,0,0,0,0,0,2.6792,2.6816,2.7052,2.7031,2.7042,2.7058,2.708,2.7162,2.7268,2.7183,2.7189,2.7213,2.7363,2.7403,2.7417,2.7542,2.7481,2.7489,2.7494,2.7497,2.773,2.7731,0,0,0,0,0,0,2.6803,2.6824,2.7029,2.7037,2.7046,2.7189,2.7131,2.7294,2.7255,2.7176,2.7253,2.7253,2.7358,2.7373,2.7412,2.7531,2.7539,2.7481,2.7486,2.749,2.7492,0,0,0,0,0,0,0,2.6813,2.6656,2.6973,2.7041,2.7049,2.7173,2.7176,2.7179,2.7255,2.7254,2.7254,2.7253,2.7439,2.7447,2.7455,2.7522,0,0,2.7481,2.7484,0,0,0,0,0,0,0,0,2.6649,2.6654,2.6974,2.6976,2.6979,2.7173,2.7176,2.7179,2.7255,2.7254,2.7254,2.7253,2.7441,2.7448,2.7454,0,0,0,0,0,0,0,0,0,0,0,0,0,0,0,2.6974,2.6976,0,2.7174,2.7176,2.7178,2.7255,2.7254,2.7254,2.7253,2.7443,2.7448,2.7454,0,0,0,0,0,0,0,0,0,0,0,0,0,0,0,0,0,0,0,0,0,0,0,0,0,0,0,0,0,0,0,0,0,0,0,0,0,0,0,0,0,0,0,0,0,0,0,0,0,0,0,0,0,0,0,0,0,0,0,0,0,0,0,0,0,0,0,0,0]}],[{"header":{"parameterUnit":"kt","parameterCategory":2,"dx":1,"dy":1,"la1":30.253999710083008,"la2":30.299108505249023,"lo1":-89.0895004272461,"lo2":-89.04439544677734,"nx":28,"ny":28,"refTime":"2022-10-06T21:00:00:Z","depth":0,"parameterNumber":2,"parameterNumberName":"V-component_of_WINDS"},"data":[1.8,1.7983,1.7967,1.7939,1.7919,1.7896,1.7882,1.7861,1.784,1.7808,1.7785,1.7764,1.7734,1.77,1.7673,1.7663,1.7652,1.7658,1.7646,1.7638,1.7635,1.7633,1.7637,1.7657,1.7657,1.7657,1.7657,1.7657,1.7994,1.7975,1.7956,1.7926,1.7908,1.7893,1.7866,1.7852,1.7831,1.7804,1.7782,1.7751,1.7723,1.7689,1.7658,1.7646,1.7636,1.7639,1.7639,1.7634,1.7625,1.763,1.7648,1.7648,1.7648,1.7648,1.7648,1.7648,1.7977,1.7968,1.7941,1.792,1.79,1.7879,1.7866,1.7842,1.7821,1.779,1.7773,1.7747,1.7715,1.7669,1.7648,1.7625,1.7618,1.7615,1.7614,1.7614,1.7616,1.7616,1.7619,1.7619,1.7619,1.7618,1.7618,0,1.796,1.7947,1.7928,1.7904,1.7887,1.7866,1.7843,1.7835,1.7799,1.7783,1.7757,1.7739,1.7702,1.7674,1.764,1.7619,1.7598,1.7594,1.7592,1.7601,1.7613,1.7605,1.759,1.7595,1.7594,1.7594,1.7594,1.7594,1.7942,1.7933,1.7897,1.7885,1.7869,1.7851,1.7836,1.7806,1.779,1.7756,1.7748,1.772,1.7697,1.7655,1.7624,1.7595,1.7585,1.7588,1.758,1.7588,1.7584,1.7585,1.7583,1.7591,1.7591,1.7591,1.7592,0,1.7933,1.7907,1.7888,1.7852,1.7843,1.7834,1.7802,1.779,1.7768,1.7747,1.7741,1.7705,1.7679,1.7647,1.761,1.7594,1.7574,1.7565,1.7585,1.7581,1.758,1.7581,1.7586,1.7584,1.7564,1.7564,1.7564,0,1.7907,1.7896,1.7857,1.7848,1.7834,1.7805,1.7791,1.7771,1.7745,1.7729,1.7703,1.7687,1.765,1.7629,1.7605,1.7583,1.7576,1.7562,1.7556,1.7565,1.7566,1.7555,1.7554,1.7543,1.7543,1.7543,1.7543,0,1.7895,1.7862,1.7847,1.7835,1.7795,1.7788,1.7771,1.7742,1.7727,1.7702,1.7692,1.7664,1.7649,1.7627,1.7597,1.7593,1.757,1.7557,1.7555,1.7556,1.7552,1.7553,1.7565,1.7543,1.7543,1.7543,1.7543,0,1.787,1.785,1.7831,1.7797,1.779,1.7779,1.7752,1.7735,1.7706,1.7692,1.7672,1.765,1.763,1.762,1.759,1.7593,1.7578,1.7563,1.7562,1.7558,1.7548,1.7559,1.7574,1.7575,1.7554,1.7554,1.7554,0,1.7864,1.7839,1.7815,1.7797,1.7781,1.7754,1.774,1.7717,1.7696,1.7678,1.7654,1.7633,1.7619,1.7608,1.7597,1.7571,1.7568,1.7571,1.754,1.7539,1.7549,1.7563,1.7574,1.7575,1.7555,1.7555,1.7555,0,1.7856,1.7811,1.781,1.7795,1.7761,1.7748,1.7732,1.7706,1.7696,1.7672,1.7657,1.7626,1.7614,1.7596,1.7576,1.7567,1.7569,1.7555,1.7553,1.7558,1.7553,1.7563,1.7564,1.7557,1.7556,1.7556,1.7556,0,1.7823,1.7808,1.7803,1.7773,1.7758,1.7746,1.7716,1.7704,1.7687,1.7666,1.7644,1.7616,1.7587,1.758,1.7563,1.7552,1.7549,1.7536,1.7524,1.7534,1.7533,1.7532,1.7528,1.7528,1.7527,1.7527,0,0,1.7823,1.7801,1.7776,1.7762,1.7748,1.772,1.771,1.7692,1.7657,1.7647,1.764,1.7594,1.7571,1.7547,1.7548,1.7536,1.7531,1.7529,1.753,1.753,1.753,1.753,1.753,1.7526,1.7526,1.7526,1.7526,0,1.7806,1.7788,1.7779,1.776,1.7732,1.7712,1.771,1.7676,1.7663,1.7642,1.7618,1.7601,1.7565,1.7544,1.7528,1.7531,1.7513,1.7525,1.7537,1.7526,1.7527,1.7528,1.7528,1.7528,1.7524,1.7524,1.7525,0,1.7792,1.777,1.7763,1.7731,1.7712,1.7697,1.7677,1.7662,1.7649,1.7618,1.7598,1.7578,1.7548,1.753,1.752,1.7514,1.7499,1.7499,1.7501,1.7499,1.7487,1.7488,1.7489,1.7473,1.7473,1.7473,0,0,1.7781,1.7767,1.7733,1.7725,1.7715,1.7685,1.7674,1.7656,1.7631,1.7621,1.7596,1.7571,1.7549,1.7536,1.7514,1.7499,1.7489,1.7494,1.7496,1.7498,1.7498,1.7486,1.7487,1.7473,1.7473,1.7473,0,0,1.7775,1.7736,1.7725,1.7712,1.7691,1.7655,1.7651,1.7635,1.7613,1.7611,1.7579,1.757,1.7553,1.7534,1.7536,1.7509,1.7497,1.7496,1.7522,1.7524,1.7527,1.7531,1.7511,0,0,0,0,0,1.7743,1.7741,1.7731,1.7725,1.7685,1.7661,1.7655,1.763,1.7623,1.762,1.7596,1.7578,1.7528,1.7529,1.7522,1.7521,1.7471,1.7471,1.7472,1.7501,1.7504,1.7507,0,0,0,0,0,0,1.774,1.7733,1.7731,1.7697,1.7687,1.7661,1.7643,1.7636,1.7623,1.762,1.7583,1.7577,1.7553,1.7531,1.7525,1.7524,1.7513,1.7471,1.7471,1.7472,1.7502,1.7504,1.7507,0,0,0,0,0,1.7738,1.7732,1.7674,1.7696,1.7688,1.7654,1.7643,1.7637,1.7626,1.7589,1.7582,1.7608,1.7554,1.7547,1.7527,1.7527,1.7517,1.7515,1.7471,1.7472,1.7472,1.7503,0,0,0,0,0,0,1.7736,1.7725,1.7672,1.7669,1.7696,1.7655,1.7648,1.7638,1.7596,1.7589,1.7613,1.7611,1.7555,1.7549,1.7544,1.753,1.752,1.7518,1.7517,1.7472,1.7472,1.7472,0,0,0,0,0,0,1.7728,1.7723,1.767,1.7671,1.7667,1.7656,1.765,1.7629,1.7595,1.7621,1.7618,1.7612,1.7561,1.7551,1.7546,1.7514,1.7522,1.752,1.7519,1.7518,1.7472,1.7472,0,0,0,0,0,0,1.7725,1.772,1.7672,1.7669,1.7666,1.7624,1.7637,1.7596,1.7598,1.7623,1.7598,1.7597,1.7563,1.7558,1.7548,1.7518,1.7515,1.7522,1.7521,1.752,1.7519,0,0,0,0,0,0,0,1.7723,1.7763,1.7693,1.7667,1.7664,1.7636,1.7635,1.7634,1.7598,1.7598,1.7598,1.7598,1.7534,1.7532,1.753,1.7521,0,0,1.7523,1.7522,0,0,0,0,0,0,0,0,1.7765,1.7763,1.7693,1.7693,1.7692,1.7636,1.7635,1.7634,1.7598,1.7598,1.7598,1.7598,1.7534,1.7532,1.753,0,0,0,0,0,0,0,0,0,0,0,0,0,0,0,1.7693,1.7693,0,1.7636,1.7635,1.7635,1.7598,1.7598,1.7598,1.7598,1.7533,1.7532,1.753,0,0,0,0,0,0,0,0,0,0,0,0,0,0,0,0,0,0,0,0,0,0,0,0,0,0,0,0,0,0,0,0,0,0,0,0,0,0,0,0,0,0,0,0,0,0,0,0,0,0,0,0,0,0,0,0,0,0,0,0,0,0,0,0,0,0,0,0,0]}]]]